Regional Weather Roundup
Issued by NWS

Home | Current Version | Previous Version | Text Only | Print | Product List | Glossary Off
Versions: 1 2 3 4 5 6 7 8 9 10 11 12 13 14 15 16 17 18 19 20 21 22 23 24 25 26 27 28 29 30 31 32 33 34 35 36 37 38 39 40 41 42 43 44 45 46 47 48 49 50

000
ASUS43 KMKX 211510
RWRWI

WISCONSIN REGIONAL WEATHER ROUNDUP
NATIONAL WEATHER SERVICE MILWAUKEE/SULLIVAN WI
900 AM CST WED FEB 21 2018

NOTE: "FAIR" INDICATES FEW OR NO CLOUDS BELOW 12,000 FEET WITH NO
SIGNIFICANT WEATHER AND/OR OBSTRUCTIONS TO VISIBILITY.

WIZ001-002-006>008-014>016-023>028-211600-
NORTHWEST WISCONSIN

CITY           SKY/WX    TMP DP  RH WIND       PRES   REMARKS
SUPERIOR ARPT  FAIR       2  -4  75 SW9       30.50F WCI -13
ASHLAND        FAIR       4  -2  76 SW10      30.50S WCI -11
HAYWARD        FAIR       2  -2  83 S6        30.49R WCI  -9
SIREN          FAIR       4  -3  72 W6        30.52S WCI  -6
CUMBERLAND     FAIR       0  -4  85 SW6       30.51R WCI -12
RICE LAKE      FAIR       2  -1  86 CALM      30.54R
CHETEK         FAIR       3  -1  81 CALM      30.54R
LADYSMITH      FAIR       4   0  81 SW5       30.52S WCI  -5
EAU CLAIRE     FAIR       5   0  79 W7        30.56R WCI  -7
MENOMONIE      FAIR       8   1  73 SW3       30.57R
NEW RICHMOND   FAIR       6  -1  74 SW5       30.55R WCI  -3
OSCEOLA        FAIR       5  -1  74 SW3       30.59R
$$

WIZ003>005-009-010-017-018-211600-
NORTH CENTRAL WISCONSIN

CITY           SKY/WX    TMP DP  RH WIND       PRES   REMARKS
MANITOWISH WTR FAIR       4  -1  82 W7        30.43S WCI  -8
ARBOR VITAE    FAIR       6   2  81 NW7       30.43R WCI  -5
WOODRUFF       FAIR       6   2  81 NW7       30.43R WCI  -5
RHINELANDER    FAIR       7   1  76 W8        30.45R WCI  -6
EAGLE RIVER    FAIR       6  -1  74 W6        30.42R WCI  -5
LAND O LAKES   FAIR       7   2  79 W7        30.42S WCI  -4
PHILLIPS       FAIR       5   0  79 W5        30.46S WCI  -4
TOMAHAWK       FAIR       6   1  79 W5        30.48R WCI  -3
MEDFORD        FAIR       3  -1  82 W3        30.48S
MERRILL        FAIR       7   2  78 NW6       30.49S WCI  -3
$$

WIZ029-030-035-036-043>047-211600-
CENTRAL WISCONSIN

CITY           SKY/WX    TMP DP  RH WIND       PRES   REMARKS
WAUSAU         FAIR       7   2  80 W9        30.50R WCI  -7
MOSINEE        MOSUNNY    9   5  85 W8        30.52R WCI  -4
MARSHFIELD     FAIR       6   1  80 W5        30.51R WCI  -3
STEVENS POINT  FAIR       8   3  78 W5        30.54R WCI   0
WAUPACA        FAIR      16   7  66 W8        30.56R WCI   6
WAUTOMA        FAIR      14   8  77 NW10      30.57R WCI   1
WISC RAPIDS    FAIR      11   3  70 NW5       30.56R WCI   3
CAMP DOUGLAS   PTSUNNY   12   5  73 NW7       30.58R WCI   2
$$

WIZ011>013-019>022-031-037>040-048>050-211600-
NORTHEAST WISCONSIN

CITY           SKY/WX    TMP DP  RH WIND       PRES   REMARKS
ANTIGO         FAIR       8   2  78 W5        30.47R WCI  -1
SHAWANO        FAIR      17   9  70 W9        30.53R WCI   6
OCONTO         FAIR      17   8  67 NW10      30.52R WCI   5
STURGEON BAY   FAIR      18  10  71 NW13      30.51R WCI   5
GREEN BAY      FAIR      19   9  65 W15       30.53R WCI   5
MANITOWOC      FAIR      21  12  68 NW17      30.53R WCI   7
APPLETON       MOSUNNY   16   9  73 W14       30.51R WCI   1
CLINTONVILLE   FAIR      15   7  69 W12       30.54R WCI   2
OSHKOSH        FAIR      17  10  74 W13       30.53R WCI   4
$$

WIZ032>034-041-042-053>061-211600-
SOUTHWEST WISCONSIN

CITY           SKY/WX    TMP DP  RH WIND       PRES   REMARKS
LA CROSSE      FAIR      13   6  74 CALM      30.62R
SPARTA         FAIR      12   6  78 W3        30.61R
VIROQUA        FAIR      11   6  83 N6        30.55R WCI   1
BOSCOBEL       FAIR      16   6  65 NW8       30.61R WCI   5
PRAIRIE DU CHI FAIR      14   4  62 NW9       30.62R WCI   2
PLATTEVILLE    FAIR      17  13  83 NW9       30.56R WCI   5
$$

WIZ056-057-062-063-064-067-068-211600-
SOUTH CENTRAL WISCONSIN

CITY           SKY/WX    TMP DP  RH WIND       PRES   REMARKS
REEDSBURG      FAIR      15   8  75 NW8       30.57R WCI   4
BARABOO/DELLS  FAIR      16   9  75 NW9       30.56R WCI   4
LONE ROCK      FAIR      17  10  74 NW8       30.59R WCI   7
MINERAL POINT  FAIR      19  18  93 NW9       30.54R WCI   9
MADISON        PTSUNNY   19  11  70 N13       30.55R WCI   6
MIDDLETON      FAIR      21  15  78 NW10      30.55R WCI  10
WATERTOWN      FAIR      20  14  78 NW12      30.54R WCI   8
MONROE         FAIR      21  16  79 NW6       30.52R WCI  14
JANESVILLE     CLOUDY    25  16  68 NW13      30.53R WCI  13
$$

WIZ051-052-058>065-066-070>072-211600-
SOUTHEAST WISCONSIN

CITY           SKY/WX    TMP DP  RH WIND       PRES   REMARKS
MILWAUKEE      PTSUNNY   25  14  63 N12       30.51R WCI  14
WAUKESHA       SUNNY     19  12  73 NW12G17   30.53R WCI   7
MILWAUKEE/TIMM SUNNY     25  12  58 NW13      30.52R WCI  13
RACINE         FAIR      25  15  66 N14G21    30.53R WCI  13
BURLINGTON     FAIR      23  14  69 N12       30.52R WCI  11
KENOSHA        FAIR      26  17  68 NW12      30.51R WCI  16
FOND DU LAC    FAIR      20  10  65 NW15      30.54R WCI   6
SHEBOYGAN      FAIR      21  13  71 NW13      30.52R WCI   9
WEST BEND      FAIR      21  14  73 NW12G17   30.51R WCI   9
JUNEAU         PTSUNNY   18  12  79 NW8       30.55R WCI   7
$$

LSZ147-162-211600-
LAKE SUPERIOR

STATION/POSITION TIME  TEMP    WIND        PRES    WAVE
                       AIR SEA DIR/SP/G            HT/PER
                 (UTC) (F)     (DEG/KT/KT) (MB)    (FT/S)
DEVILS ISLAND    1500    8     210/ 10/ 12 1033.5R
SAXON HARBOR     1430    7     210/  6/ 11 1032.8R
$$

LMZ867-665-643>646-211600-
LAKE MICHIGAN

STATION/POSITION TIME  TEMP    WIND        PRES    WAVE
                       AIR SEA DIR/SP/G            HT/PER
                 (UTC) (F)     (DEG/KT/KT) (MB)    (FT/S)
NORTHPORT PIER   1440   18                 1032.2R
KEWAUNEE LAKESHO 1448   20     300/ 10/ 15 1032.1R
SHEBOYGAN LAKESH 1500   21     320/ 17/ 20 1034.6R
PORT WASHINGTON  1440   23     300/ 10/ 15 1033.9R
MILWAUKEE LAKESH 1450   24     310/  8/ 11   N/A
KENOSHA   LAKESH 1500   25     320/ 11/ 14 1033.2
$$

TC  - TEMPERATURE IN CELSIUS
VSB - VISIBILITY IN STATUTE MILES
WCI - WIND CHILL INDEX
HX  - HEAT INDEX





USA.gov is the U.S. government's official web portal to all federal, state and local government web resources and services.